| time (UTC) | temp F | wind direction | speed MPH | gust MPH | rain 1hr in | rain 24hr in | rain mn in | humidity % | barometer mb |
| 20260904193034 | 93 | 201 | 1.0 | 6.0 | 0.00 | 0.05 | 0.05 | 63 | 1015.2 |
| 20260904191536 | 91 | 169 | 1.0 | 4.0 | 0.00 | 0.05 | 0.05 | 66 | 1015.3 |
| 20260904190034 | 90 | 271 | 2.0 | 5.0 | 0.00 | 0.05 | 0.05 | 71 | 1015.7 |
| 20260904184537 | 89 | 180 | 2.0 | 10.0 | 0.00 | 0.05 | 0.05 | 74 | 1016.2 |
| 20260904183034 | 89 | 226 | 3.0 | 5.0 | 0.00 | 0.05 | 0.05 | 74 | 1016.2 |
| 20260904181536 | 87 | 171 | 1.0 | 7.0 | 0.00 | 0.05 | 0.05 | 76 | 1016.6 |
| 20260904180036 | 87 | 161 | 3.0 | 9.0 | 0.00 | 0.05 | 0.05 | 75 | 1016.9 |
| 20260904174533 | 87 | 168 | 3.0 | 8.0 | 0.00 | 0.05 | 0.05 | 73 | 1016.7 |
| 20260904173037 | 89 | 74 | 1.0 | 5.0 | 0.00 | 0.05 | 0.05 | 76 | 1016.6 |
| 20260904171546 | 88 | 120 | 2.0 | 9.0 | 0.00 | 0.05 | 0.05 | 77 | 1016.7 |
| 20260904170034 | 88 | 0 | 2.0 | 6.0 | 0.00 | 0.05 | 0.05 | 77 | 1017.0 |
| 20260904164537 | 87 | 88 | 2.0 | 9.0 | 0.00 | 0.05 | 0.05 | 81 | 1016.7 |
| 20260904163038 | 86 | 142 | 3.0 | 9.0 | 0.00 | 0.05 | 0.05 | 83 | 1016.8 |
| 20260904161534 | 85 | 98 | 2.0 | 6.0 | 0.00 | 0.05 | 0.05 | 85 | 1016.7 |
| 20260904160047 | 85 | 75 | 2.0 | 6.0 | 0.00 | 0.05 | 0.05 | 86 | 1016.5 |
| 20260904154539 | 84 | 44 | 1.0 | 5.0 | 0.00 | 0.05 | 0.05 | 87 | 1016.8 |
| 20260904153035 | 84 | 66 | 1.0 | 5.0 | 0.00 | 0.05 | 0.05 | 87 | 1016.4 |
| 20260904151534 | 83 | 0 | 1.0 | 5.0 | 0.00 | 0.05 | 0.05 | 88 | 1016.3 |
| 20260904150042 | 83 | 59 | 1.0 | 4.0 | 0.00 | 0.05 | 0.05 | 88 | 1016.3 |
| 20260904144538 | 83 | 0 | 0.0 | 3.0 | 0.00 | 0.06 | 0.05 | 87 | 1016.1 |
| 20260904143034 | 84 | 70 | 1.0 | 4.0 | 0.00 | 0.06 | 0.05 | 87 | 1016.1 |
| 20260904141535 | 84 | 70 | 1.0 | 3.0 | 0.00 | 0.06 | 0.05 | 89 | 1015.9 |
| 20260904140050 | 83 | 65 | 0.0 | 4.0 | 0.00 | 0.06 | 0.05 | 91 | 1015.9 |
| 20260904134542 | 82 | 151 | 0.0 | 2.0 | 0.00 | 0.06 | 0.05 | 93 | 1015.8 |
| 20260904133035 | 81 | 0 | 0.0 | 0.0 | 0.00 | 0.06 | 0.05 | 93 | 1015.8 |
| 20260904131543 | 80 | 0 | 0.0 | 1.0 | 0.00 | 0.06 | 0.05 | 93 | 1015.9 |
| 20260904130045 | 80 | 0 | 0.0 | 1.0 | 0.00 | 0.06 | 0.05 | 93 | 1015.9 |
| 20260904124536 | 80 | 0 | 0.0 | 3.0 | 0.00 | 0.06 | 0.05 | 93 | 1015.7 |
| 20260904123035 | 80 | 0 | 0.0 | 0.0 | 0.00 | 0.06 | 0.05 | 92 | 1015.3 |
| 20260904121533 | 80 | 0 | 0.0 | 1.0 | 0.00 | 0.06 | 0.05 | 92 | 1015.2 |
| 20260904120034 | 80 | 0 | 0.0 | 2.0 | 0.00 | 0.06 | 0.05 | 92 | 1015.1 |
| 20260904114534 | 80 | 0 | 0.0 | 1.0 | 0.00 | 0.06 | 0.05 | 92 | 1015.1 |
| 20260904113036 | 80 | 0 | 0.0 | 0.0 | 0.00 | 0.06 | 0.05 | 92 | 1015.0 |
| 20260904111540 | 80 | 167 | 0.0 | 2.0 | 0.00 | 0.06 | 0.05 | 92 | 1015.0 |
| 20260904110034 | 80 | 0 | 0.0 | 0.0 | 0.00 | 0.06 | 0.05 | 92 | 1015.1 |
| 20260904104536 | 80 | 0 | 0.0 | 0.0 | 0.00 | 0.06 | 0.05 | 92 | 1015.2 |
| 20260904103043 | 80 | 0 | 0.0 | 0.0 | 0.00 | 0.06 | 0.05 | 91 | 1015.0 |
| 20260904101535 | 80 | 0 | 0.0 | 1.0 | 0.00 | 0.06 | 0.05 | 91 | 1014.9 |
| 20260904100033 | 80 | 0 | 0.0 | 1.0 | 0.00 | 0.06 | 0.05 | 91 | 1014.7 |
| 20260904094533 | 80 | 0 | 0.0 | 1.0 | 0.00 | 0.06 | 0.05 | 91 | 1014.5 |
| 20260904093038 | 81 | 0 | 0.0 | 3.0 | 0.00 | 0.06 | 0.05 | 90 | 1014.5 |
| 20260904091535 | 81 | 0 | 0.0 | 1.0 | 0.02 | 0.06 | 0.05 | 90 | 1014.6 |
| 20260904090039 | 81 | 0 | 0.0 | 0.0 | 0.05 | 0.06 | 0.05 | 89 | 1014.7 |
| 20260904084535 | 82 | 0 | 0.0 | 0.0 | 0.05 | 0.06 | 0.05 | 88 | 1014.7 |
| 20260904083034 | 82 | 0 | 0.0 | 1.0 | 0.05 | 0.06 | 0.05 | 87 | 1014.8 |
| 20260904081534 | 83 | 0 | 0.0 | 1.0 | 0.03 | 0.04 | 0.03 | 86 | 1014.7 |
| 20260904080033 | 83 | 0 | 0.0 | 4.0 | 0.00 | 0.01 | 0.00 | 84 | 1014.7 |
| 20260904074536 | 83 | 181 | 0.0 | 4.0 | 0.00 | 0.01 | 0.00 | 84 | 1014.7 |
| 20260904073036 | 83 | 0 | 0.0 | 3.0 | 0.00 | 0.01 | 0.00 | 84 | 1014.8 |
| 20260904071535 | 83 | 155 | 1.0 | 6.0 | 0.00 | 0.01 | 0.00 | 84 | 1015.0 |
| 20260904070035 | 83 | 178 | 1.0 | 5.0 | 0.00 | 0.01 | 0.00 | 84 | 1015.0 |
| 20260904064535 | 83 | 0 | 1.0 | 8.0 | 0.00 | 0.01 | 0.00 | 84 | 1015.0 |
| 20260904063041 | 83 | 0 | 0.0 | 4.0 | 0.00 | 0.01 | 0.00 | 85 | 1014.9 |
| 20260904061533 | 83 | 0 | 2.0 | 6.0 | 0.00 | 0.01 | 0.00 | 85 | 1015.0 |
| 20260904060038 | 83 | 71 | 0.0 | 5.0 | 0.00 | 0.01 | 0.00 | 85 | 1015.0 |
| 20260904054533 | 84 | 126 | 1.0 | 6.0 | 0.00 | 0.01 | 0.00 | 85 | 1015.0 |
| 20260904053033 | 84 | 109 | 1.0 | 5.0 | 0.00 | 0.01 | 0.00 | 84 | 1015.1 |
| 20260904051554 | 84 | 112 | 2.0 | 10.0 | 0.00 | 0.01 | 0.00 | 84 | 1014.9 |
| 20260904050036 | 84 | 126 | 3.0 | 12.0 | 0.00 | 0.01 | 0.00 | 84 | 1015.0 |
| 20260904044537 | 84 | 124 | 1.0 | 7.0 | 0.00 | 0.01 | 0.01 | 83 | 1015.1 |
| 20260904043035 | 84 | 163 | 2.0 | 8.0 | 0.00 | 0.01 | 0.01 | 83 | 1015.1 |
| 20260904041539 | 84 | 110 | 1.0 | 7.0 | 0.00 | 0.01 | 0.01 | 82 | 1015.2 |
| 20260904040039 | 84 | 153 | 2.0 | 8.0 | 0.00 | 0.01 | 0.01 | 83 | 1015.2 |
| 20260904034537 | 84 | 179 | 2.0 | 7.0 | 0.00 | 0.01 | 0.01 | 83 | 1015.0 |
| 20260904033035 | 84 | 128 | 1.0 | 10.0 | 0.00 | 0.01 | 0.01 | 83 | 1015.2 |
| 20260904031534 | 84 | 125 | 1.0 | 6.0 | 0.00 | 0.01 | 0.01 | 83 | 1015.2 |
| 20260904030036 | 84 | 165 | 0.0 | 4.0 | 0.00 | 0.01 | 0.01 | 83 | 1014.9 |
| 20260904024533 | 84 | 107 | 2.0 | 5.0 | 0.00 | 0.01 | 0.01 | 82 | 1014.9 |
| 20260904023037 | 84 | 105 | 2.0 | 9.0 | 0.00 | 0.01 | 0.01 | 82 | 1014.7 |
| 20260904021538 | 84 | 121 | 4.0 | 11.0 | 0.00 | 0.01 | 0.01 | 82 | 1014.5 |
| 20260904020036 | 84 | 102 | 1.0 | 6.0 | 0.00 | 0.01 | 0.01 | 83 | 1014.5 |
| 20260904014539 | 84 | 81 | 1.0 | 5.0 | 0.00 | 0.01 | 0.01 | 83 | 1014.3 |
| 20260904013035 | 84 | 124 | 2.0 | 7.0 | 0.00 | 0.01 | 0.01 | 83 | 1014.0 |
| 20260904011537 | 84 | 112 | 3.0 | 10.0 | 0.00 | 0.01 | 0.01 | 82 | 1014.1 |
| 20260904010044 | 84 | 135 | 1.0 | 4.0 | 0.00 | 0.01 | 0.01 | 81 | 1014.0 |
| 20260904004533 | 84 | 0 | 0.0 | 4.0 | 0.00 | 0.01 | 0.01 | 80 | 1013.9 |
| 20260904003033 | 84 | 108 | 0.0 | 4.0 | 0.00 | 0.01 | 0.01 | 80 | 1014.0 |
| 20260904001541 | 84 | 0 | 0.0 | 3.0 | 0.00 | 0.01 | 0.01 | 80 | 1014.2 |
| 20260904000043 | 84 | 101 | 1.0 | 3.0 | 0.00 | 0.01 | 0.01 | 79 | 1014.4 |
| 20260903234536 | 84 | 82 | 1.0 | 4.0 | 0.00 | 0.01 | 0.01 | 79 | 1014.3 |
| 20260903233036 | 84 | 0 | 0.0 | 2.0 | 0.00 | 0.01 | 0.01 | 79 | 1014.4 |
| 20260903231536 | 84 | 0 | 0.0 | 3.0 | 0.00 | 0.01 | 0.01 | 78 | 1014.4 |
| 20260903230034 | 84 | 0 | 0.0 | 4.0 | 0.00 | 0.01 | 0.01 | 78 | 1014.5 |
| 20260903224535 | 84 | 67 | 2.0 | 5.0 | 0.00 | 0.01 | 0.01 | 77 | 1014.2 |
| 20260903223038 | 84 | 0 | 1.0 | 3.0 | 0.00 | 0.01 | 0.01 | 75 | 1014.4 |
| 20260903221533 | 83 | 0 | 0.0 | 3.0 | 0.00 | 0.01 | 0.01 | 75 | 1014.4 |
| 20260903220039 | 83 | 108 | 1.0 | 4.0 | 0.00 | 0.01 | 0.01 | 76 | 1014.5 |
| 20260903214535 | 83 | 111 | 1.0 | 4.0 | 0.00 | 0.01 | 0.01 | 77 | 1015.1 |
| 20260903213036 | 83 | 137 | 2.0 | 7.0 | 0.00 | 0.01 | 0.01 | 76 | 1015.5 |
| 20260903211536 | 84 | 115 | 4.0 | 9.0 | 0.00 | 0.01 | 0.01 | 76 | 1015.4 |
| 20260903210037 | 84 | 61 | 1.0 | 6.0 | 0.00 | 0.01 | 0.01 | 76 | 1015.4 |
| 20260903204541 | 85 | 355 | 1.0 | 6.0 | 0.00 | 0.01 | 0.01 | 74 | 1015.4 |
| 20260903203038 | 85 | 0 | 1.0 | 8.0 | 0.00 | 0.01 | 0.01 | 75 | 1015.7 |
| 20260903201535 | 85 | 288 | 2.0 | 5.0 | 0.00 | 0.01 | 0.01 | 77 | 1015.1 |
| 20260903200040 | 85 | 305 | 3.0 | 8.0 | 0.00 | 0.01 | 0.01 | 77 | 1015.2 |
| 20260903194534 | 85 | 313 | 1.0 | 4.0 | 0.00 | 0.01 | 0.01 | 77 | 1015.4 |